Probability
77 97 100 100 100 100 100 100 100 100 100 100 100 100 100 100 100 100 100 100 100 100 100 100 100 100 100 100 100 100 100 100 100 100 100 100 100 100 100 100 100 94 100
84 97 100 100 100 100 100 100 100 100 100 100 100 100 100 100 100 100 100 100 100 100 100 100 100 100 100 100 100 100 100 100 100 100 100 100 100 100 100 97 100 100 100
94 100 100 100 100 100 100 100 100 100 100 100 100 100 100 100 100 100 100 100 100 100 100 100 100 100 100 100 100 100 100 100 100 100 100 94 97 100 100 97 100 100 100
94 100 97 100 100 100 100 100 100 100 100 100 100 100 100 100 100 100 100 100 100 100 100 100 100 100 100 100 100 100 100 100 100 100 94 81 84 94 100 100 100 100 100
97 100 100 100 100 100 100 100 100 100 100 100 100 100 100 100 100 100 100 100 100 100 100 100 100 100 100 100 100 100 100 100 100 100 39 77 97 100 100 100 100 100 100
97 97 100 100 100 100 100 100 100 100 100 100 100 100 100 100 100 100 100 100 100 100 100 100 97 97 97 97 97 97 97 94 94 35 42 55 94 100 100 100 100 100 100
97 97 100 100 100 100 100 100 100 100 100 100 100 100 100 100 100 100 100 100 100 100 100 94 94 90 94 94 90 90 87 84 84 29 45 35 90 100 100 100 100 100 100
94 97 100 100 100 100 100 100 100 100 100 100 100 100 100 100 100 100 100 100 100 100 87 81 81 77 74 77 74 71 77 81 45 35 55 68 94 97 100 100 100 100 97
90 97 100 100 100 100 100 100 100 100 100 100 100 100 100 100 100 100 100 100 97 94 77 68 71 74 68 65 68 65 68 71 52 39 39 81 87 94 100 100 100 100 94
90 97 100 100 100 100 100 100 100 100 100 100 100 100 100 100 100 100 97 97 90 77 71 74 68 61 61 68 71 71 65 52 35 23 45 84 90 90 94 97 100 97 94
97 100 100 100 100 100 100 100 97 97 97 97 100 100 100 87 81 94 71 84 77 77 77 71 74 71 74 71 65 68 58 35 19 23 48 84 87 90 94 94 90 87 90
100 97 100 100 100 100 97 97 97 90 90 90 87 87 87 94 90 74 81 84 77 81 81 81 81 77 48 48 55 55 26 16 6 23 39 71 77 84 84 97 90 90 84
100 97 97 100 100 100 100 100 97 94 94 94 90 94 90 90 84 77 81 90 94 84 71 90 77 48 23 29 45 32 26 19 16 16 55 68 71 81 87 87 77 74 68
100 100 94 97 100 97 97 100 97 97 94 94 94 94 94 90 90 84 87 74 77 84 87 61 65 35 42 42 35 19 13 23 35 55 77 65 71 77 68 65 65 61 58
100 90 90 90 94 97 97 97 94 94 90 87 90 87 90 87 94 90 94 94 71 77 90 74 58 65 55 42 39 35 35 35 39 58 68 65 58 68 71 58 52 48 48
90 87 90 90 87 90 94 90 87 84 84 81 81 74 77 87 97 97 97 100 87 84 74 77 61 81 74 61 52 52 35 39 52 58 58 55 39 52 55 52 35 35 35
81 81 81 81 87 87 90 87 81 84 84 81 74 81 81 87 90 94 100 90 87 90 90 87 77 81 81 61 48 45 39 35 35 45 32 52 39 26 26 26 29 32 26
71 77 81 71 81 90 90 81 74 68 68 65 71 71 74 77 77 77 77 77 84 84 87 90 84 84 68 52 55 42 32 42 26 23 19 23 32 26 26 10 10 10 23
71 74 74 77 74 84 84 81 68 68 65 68 68 68 61 58 68 68 71 77 77 84 81 68 81 68 58 45 26 29 16 16 19 13 10 10 23 23 26 16 10 10 6
68 71 68 61 68 61 68 71 68 61 52 48 48 48 55 55 55 58 61 68 65 74 68 65 68 65 48 42 3 6 10 10 13 16 16 10 19 13 6 10 13 6 3
55 58 61 61 61 68 58 55 42 42 39 29 32 35 35 39 39 42 42 45 48 52 52 42 45 35 23 13 13 3 6 6 6 10 6 3 3 3 3 6 10 10 6
48 55 48 52 45 42 52 48 42 26 19 19 23 26 23 23 29 23 23 29 26 35 29 32 29 23 10 3 13 13 3 3 6 0 6 6 6 3 0 0 0 0 0
42 39 39 42 42 42 42 32 23 19 19 13 13 13 13 13 13 13 10 6 16 13 23 23 16 16 10 0 0 6 6 3 3 0 0 0 0 0 0 0 0 0 0
32 35 35 39 35 35 32 29 16 13 16 16 10 10 10 10 10 10 13 10 6 10 13 3 0 3 0 0 0 0 0 0 0 0 0 0 0 0 0 0 0 0 0
23 26 32 29 35 26 29 26 19 13 13 10 6 6 6 6 10 6 0 3 3 0 0 0 0 0 0 0 0 0 0 0 0 0 0 0 0 0 0 0 0 0 0
23 23 26 19 16 19 19 23 16 10 6 6 6 3 0 0 0 0 0 3 3 3 3 3 0 0 0 0 0 0 0 0 0 0 0 0 0 0 0 0 0 0 0
Height
5895 5895 5895 5896 5896 5897 5898 5899 5901 5902 5902 5903 5903 5904 5904 5904 5904 5904 5905 5905 5905 5905 5905 5905 5905 5905 5905 5905 5904 5904 5904 5904 5904 5903 5903 5902 5902 5901 5901 5900 5900 5899 5899
5894 5894 5894 5894 5895 5896 5896 5898 5899 5900 5901 5901 5901 5902 5902 5902 5903 5903 5903 5904 5904 5904 5904 5904 5904 5904 5904 5904 5903 5903 5903 5903 5903 5903 5902 5902 5901 5901 5900 5900 5899 5899 5898
5891 5892 5893 5893 5894 5894 5895 5896 5897 5898 5899 5899 5899 5900 5900 5901 5901 5902 5902 5903 5903 5903 5903 5903 5902 5902 5902 5902 5902 5902 5902 5902 5902 5902 5901 5901 5900 5900 5900 5899 5899 5898 5898
5889 5890 5891 5891 5892 5893 5893 5894 5895 5896 5896 5897 5898 5898 5899 5899 5899 5900 5901 5901 5901 5901 5901 5901 5901 5901 5901 5901 5901 5901 5901 5901 5901 5901 5901 5900 5899 5899 5899 5898 5898 5897 5897
5887 5887 5888 5889 5890 5891 5892 5892 5893 5894 5895 5895 5895 5896 5897 5897 5897 5898 5899 5899 5899 5900 5900 5900 5900 5900 5900 5900 5900 5900 5900 5900 5900 5900 5900 5899 5899 5898 5898 5898 5897 5897 5896
5885 5885 5886 5887 5888 5889 5890 5890 5891 5892 5892 5893 5893 5894 5894 5895 5895 5896 5897 5897 5898 5898 5898 5898 5898 5898 5899 5899 5899 5899 5899 5899 5899 5899 5899 5899 5898 5898 5898 5897 5897 5896 5896
5883 5883 5884 5885 5886 5887 5887 5888 5889 5889 5890 5890 5891 5891 5892 5892 5893 5894 5895 5895 5896 5896 5896 5897 5897 5897 5897 5897 5897 5898 5898 5898 5898 5898 5898 5898 5898 5897 5897 5896 5896 5895 5895
5880 5881 5881 5882 5883 5884 5885 5885 5886 5886 5887 5887 5888 5889 5889 5890 5891 5892 5892 5893 5894 5894 5895 5895 5895 5895 5896 5896 5896 5896 5897 5897 5897 5897 5897 5897 5896 5896 5895 5895 5894 5894 5893
5878 5878 5878 5879 5880 5881 5882 5882 5883 5883 5884 5884 5885 5886 5887 5888 5889 5890 5890 5891 5891 5892 5893 5893 5893 5893 5894 5894 5895 5895 5895 5895 5895 5895 5895 5895 5895 5894 5894 5893 5892 5892 5891
5875 5875 5875 5876 5877 5878 5878 5879 5879 5880 5881 5881 5882 5883 5884 5884 5885 5886 5887 5888 5889 5890 5890 5891 5891 5892 5892 5893 5893 5893 5893 5894 5894 5893 5893 5893 5893 5892 5892 5891 5890 5890 5889
5872 5872 5872 5873 5874 5874 5875 5875 5876 5877 5877 5877 5878 5879 5880 5880 5882 5883 5884 5885 5886 5887 5888 5888 5889 5889 5890 5890 5891 5891 5891 5891 5892 5891 5891 5891 5891 5890 5889 5889 5888 5887 5887
5868 5869 5869 5869 5870 5871 5871 5871 5872 5872 5873 5873 5874 5874 5876 5877 5878 5879 5880 5882 5883 5884 5885 5885 5886 5886 5887 5888 5888 5889 5889 5889 5889 5889 5889 5888 5888 5887 5887 5886 5885 5884 5884
5865 5865 5865 5866 5866 5867 5867 5867 5868 5868 5869 5870 5871 5871 5872 5873 5874 5875 5877 5878 5879 5880 5881 5882 5883 5884 5884 5885 5886 5886 5886 5886 5886 5886 5886 5885 5885 5884 5883 5883 5882 5881 5880
5861 5861 5862 5862 5863 5863 5863 5864 5864 5864 5864 5865 5866 5867 5867 5868 5869 5871 5873 5874 5875 5877 5878 5879 5880 5881 5882 5882 5883 5883 5883 5883 5883 5883 5882 5882 5881 5880 5880 5879 5878 5877 5877
5857 5857 5858 5858 5858 5858 5859 5859 5859 5859 5859 5861 5862 5862 5863 5864 5865 5867 5868 5870 5871 5873 5874 5875 5876 5877 5878 5879 5879 5879 5879 5879 5879 5879 5878 5878 5877 5877 5876 5875 5874 5874 5873
5852 5853 5853 5854 5854 5854 5854 5855 5855 5854 5855 5855 5855 5855 5857 5858 5860 5862 5863 5865 5867 5868 5869 5871 5872 5873 5874 5875 5875 5875 5875 5875 5875 5875 5875 5874 5873 5873 5872 5871 5871 5870 5869
5847 5848 5848 5849 5849 5849 5849 5849 5849 5849 5850 5850 5851 5851 5852 5854 5855 5857 5859 5860 5862 5863 5865 5866 5867 5869 5870 5870 5871 5871 5871 5871 5871 5871 5870 5870 5869 5869 5868 5867 5867 5866 5865
5841 5843 5843 5844 5844 5844 5844 5844 5844 5844 5845 5844 5845 5846 5848 5849 5850 5852 5854 5856 5857 5858 5860 5862 5863 5864 5865 5865 5866 5866 5866 5866 5866 5866 5866 5865 5865 5864 5863 5863 5862 5861 5860
5835 5837 5838 5838 5839 5839 5838 5838 5839 5838 5839 5839 5839 5839 5841 5843 5845 5846 5848 5850 5851 5853 5855 5856 5857 5858 5859 5860 5860 5861 5861 5861 5861 5861 5861 5860 5859 5858 5858 5857 5856 5855 5854
5829 5830 5832 5833 5833 5833 5833 5833 5833 5833 5833 5833 5834 5834 5835 5837 5839 5841 5842 5844 5845 5847 5849 5850 5851 5853 5854 5854 5855 5855 5855 5855 5855 5855 5855 5854 5854 5853 5852 5851 5849 5848 5847
5822 5824 5826 5827 5827 5827 5826 5826 5826 5826 5827 5828 5828 5829 5830 5832 5833 5835 5836 5838 5840 5841 5843 5844 5845 5846 5848 5848 5849 5850 5849 5849 5849 5849 5848 5848 5847 5846 5845 5844 5842 5841 5839
5816 5817 5819 5820 5821 5820 5820 5820 5819 5820 5820 5821 5822 5823 5825 5826 5827 5829 5830 5832 5833 5835 5836 5838 5839 5841 5842 5842 5843 5843 5843 5844 5843 5842 5842 5841 5840 5839 5838 5836 5835 5833 5831
5809 5811 5813 5814 5814 5814 5814 5813 5813 5814 5814 5814 5816 5818 5819 5820 5820 5822 5824 5826 5827 5829 5830 5832 5833 5834 5835 5836 5836 5837 5837 5837 5836 5836 5834 5834 5832 5831 5830 5828 5826 5825 5823
5802 5804 5806 5807 5808 5808 5807 5807 5807 5808 5808 5808 5809 5811 5813 5813 5814 5815 5817 5818 5820 5822 5824 5825 5826 5827 5828 5829 5829 5829 5830 5830 5829 5828 5827 5826 5825 5823 5821 5819 5818 5816 5813
5796 5798 5799 5800 5801 5801 5801 5801 5801 5802 5802 5802 5803 5804 5806 5806 5808 5809 5810 5812 5814 5815 5817 5818 5819 5820 5821 5821 5822 5822 5822 5822 5821 5820 5819 5818 5817 5815 5812 5810 5808 5806 5804
5790 5791 5792 5794 5795 5795 5795 5795 5795 5796 5796 5796 5797 5798 5798 5799 5800 5802 5803 5805 5807 5809 5810 5811 5812 5813 5813 5813 5813 5814 5813 5813 5813 5811 5810 5808 5807 5805 5803 5801 5798 5796 5793
Wind_Speed
11 12 12 13 12 12 11 11 10 11 11 10 9 7 6 5 4 2 1 1 1 2 2 2 3 3 2 2 2 2 2 2 2 3 3 4 4 5 5 5 4 4 5
11 12 13 13 13 12 11 11 11 12 11 10 9 8 7 6 5 4 2 2 2 2 2 2 2 2 2 2 2 2 2 1 2 2 3 3 4 4 4 5 5 5 5
10 12 13 14 13 12 12 12 12 13 13 12 11 10 9 8 7 5 4 3 3 3 3 2 2 2 2 2 2 2 1 2 2 2 3 3 4 4 4 5 5 5 5
11 12 14 13 13 12 12 12 13 14 14 13 12 11 10 9 8 7 6 5 5 4 4 4 4 3 3 3 2 2 2 2 3 3 3 3 4 4 4 5 5 5 5
11 12 13 13 13 13 13 13 13 14 14 14 13 13 12 11 10 9 7 7 6 6 5 5 5 4 4 4 3 3 3 3 3 3 3 4 3 4 4 5 5 5 5
12 13 13 14 13 13 13 13 14 15 15 15 15 14 13 12 11 10 9 8 8 7 7 6 6 5 5 4 4 4 4 3 4 4 4 4 4 4 5 5 5 5 5
12 13 13 14 14 14 14 15 15 15 16 17 16 16 15 14 13 12 10 9 9 8 8 8 7 6 6 5 5 5 4 4 5 5 5 5 5 5 6 6 6 6 6
12 13 14 15 15 15 15 16 16 16 16 17 17 16 15 15 14 13 12 11 10 10 9 9 8 7 7 6 6 5 6 6 6 6 6 6 6 7 7 7 7 7 7
12 12 14 14 15 16 17 17 17 17 17 17 17 17 17 16 15 14 13 12 12 11 10 10 9 9 8 8 7 7 7 7 7 7 8 8 7 8 8 8 8 8 8
13 14 15 15 16 17 17 18 18 18 18 17 17 18 18 17 17 16 15 14 13 12 12 11 11 10 10 9 9 9 9 9 9 9 9 9 9 9 9 9 10 10 10
15 15 16 16 17 16 16 18 18 18 18 18 18 18 18 18 18 17 16 15 15 14 13 13 12 12 12 11 11 10 10 10 10 11 11 11 11 12 12 12 12 12 12
16 17 17 16 17 16 16 18 19 19 20 19 19 19 19 19 19 18 17 17 16 16 15 14 14 14 13 13 13 12 12 12 12 13 13 13 13 14 14 14 15 15 15
18 18 18 19 19 18 17 18 19 20 20 20 20 20 20 21 20 19 19 19 18 18 17 16 16 16 15 15 14 14 14 14 14 15 15 15 15 16 16 17 17 18 18
21 21 20 19 20 19 19 20 20 20 20 21 21 22 22 22 22 21 21 20 20 19 18 18 17 17 17 16 16 16 16 16 16 16 16 17 17 18 18 18 18 18 18
23 22 22 20 20 21 21 21 21 21 21 22 23 24 24 23 23 22 22 22 22 21 20 20 19 19 18 18 18 18 18 18 18 18 18 18 18 19 18 18 19 19 19
24 24 24 24 23 23 23 23 23 23 23 23 24 25 26 25 24 24 23 23 24 23 22 22 21 21 20 20 20 20 20 20 20 20 20 20 20 19 19 19 20 20 20
26 26 25 26 26 24 25 25 25 24 25 25 25 26 27 27 27 26 25 25 25 24 23 24 24 23 23 22 21 22 22 22 22 22 22 22 22 22 22 22 22 23 23
28 27 27 26 26 27 26 27 26 26 27 27 27 27 28 28 28 28 27 26 26 26 26 26 25 25 24 24 23 23 24 24 24 25 25 25 25 25 24 25 25 26 27
29 29 28 27 26 27 28 27 27 27 27 28 27 28 29 30 30 30 28 27 27 27 27 27 27 27 26 26 25 25 25 26 26 26 27 27 27 27 28 28 29 29 30
31 30 29 28 27 28 28 28 28 28 28 28 27 27 29 30 30 30 29 29 29 29 29 29 29 29 28 28 28 27 27 27 28 28 29 29 29 30 30 31 31 32 33
32 31 31 30 29 29 28 27 28 27 27 28 27 27 28 29 30 30 31 30 29 29 29 30 29 29 29 29 29 29 28 28 29 30 30 31 31 31 32 33 34 34 35
33 32 31 30 30 30 30 29 29 28 29 29 29 28 28 28 29 30 32 31 29 28 28 29 29 30 30 30 30 30 30 30 30 30 31 33 34 34 34 34 35 36 37
32 32 32 30 30 30 30 30 29 29 29 27 28 28 29 30 28 28 30 30 30 30 30 30 31 31 31 31 30 31 32 32 32 33 33 34 34 34 34 36 37 38 39
31 31 31 30 31 30 29 29 28 27 27 26 27 28 27 29 30 29 29 30 31 31 31 30 30 30 30 30 30 30 31 32 33 33 33 34 35 36 37 38 39 41 42
29 30 30 31 30 29 28 28 27 26 25 26 26 27 28 29 30 30 30 31 30 30 30 31 30 31 31 31 31 32 33 33 33 33 35 36 37 38 39 41 42 43 44
28 29 29 30 30 29 28 26 26 27 26 26 27 28 28 28 30 31 31 30 30 30 31 31 31 31 32 32 33 33 34 35 35 36 38 38 39 40 41 42 44 46 47
Wind_Direction
213 208 201 194 194 199 203 207 210 211 208 201 200 198 194 191 187 181 181 333 340 341 345 351 346 339 334 330 326 319 310 308 316 326 329 330 335 338 337 335 331 322 317
221 217 206 198 196 199 201 208 215 218 215 211 209 208 206 207 208 211 224 258 283 295 304 310 313 308 302 301 303 299 289 294 305 314 320 324 327 331 332 333 330 323 319
228 220 212 203 199 202 206 212 217 220 220 219 216 215 215 216 219 225 234 249 258 264 272 275 277 276 275 278 279 273 268 277 289 300 311 318 321 325 326 327 326 325 323
229 220 216 211 209 209 212 216 220 223 222 222 221 219 220 220 223 230 236 243 247 251 258 261 262 261 262 262 262 262 263 268 280 294 304 311 317 320 323 325 324 324 325
232 224 221 219 217 215 217 219 223 225 225 224 223 222 224 224 225 228 234 239 242 245 250 255 254 255 255 255 257 261 265 268 278 294 303 308 312 313 316 319 320 319 320
237 229 226 224 221 221 222 223 225 227 229 228 227 227 227 226 226 227 230 235 240 243 248 250 250 250 250 253 258 259 261 268 275 289 299 303 305 304 304 307 312 315 315
241 233 230 230 228 229 230 229 230 231 231 231 231 230 228 227 227 227 229 233 238 241 244 246 248 248 249 252 251 251 257 266 275 279 286 291 296 297 296 295 299 304 308
244 236 236 235 235 236 236 236 235 234 234 234 233 232 231 230 229 228 229 231 235 239 241 243 245 247 248 248 246 246 251 260 267 270 274 279 284 288 290 290 291 294 298
246 242 235 234 239 241 240 238 237 236 235 235 234 234 233 231 231 231 232 233 234 237 239 241 243 245 245 245 243 243 247 253 258 262 268 270 276 282 285 285 286 289 291
250 241 237 234 240 245 244 240 239 237 237 237 236 236 234 233 234 233 234 234 235 236 238 239 242 244 245 243 241 244 248 254 258 263 268 270 273 279 281 282 283 285 286
249 243 238 237 240 247 248 243 241 240 239 238 237 236 235 234 235 236 237 236 235 236 237 238 240 242 243 243 244 246 251 256 261 266 270 272 274 278 281 282 282 284 283
249 247 244 243 243 247 252 247 242 241 241 239 237 235 236 236 235 236 237 237 236 237 238 238 238 240 241 244 246 248 252 257 263 267 271 273 275 277 279 280 282 283 282
249 248 247 247 246 248 250 248 245 243 243 242 238 238 234 236 237 237 238 238 237 238 239 239 238 239 242 244 247 250 253 257 262 266 271 273 274 276 278 279 282 283 282
249 248 250 249 247 247 250 248 248 247 246 244 242 238 235 238 239 240 239 240 239 240 240 240 240 240 242 245 248 251 255 257 262 266 270 273 276 278 280 280 281 283 281
252 251 249 250 251 250 251 251 250 249 248 244 243 241 238 240 241 240 240 240 241 241 240 240 239 240 243 246 248 251 255 258 262 266 270 274 277 279 279 280 280 281 281
250 254 253 254 257 253 251 253 252 250 250 250 244 241 237 238 238 238 240 241 242 241 240 240 241 241 243 246 249 251 255 258 262 267 271 273 276 278 278 279 279 279 280
249 252 254 255 258 256 255 254 255 251 252 252 246 244 240 239 238 238 239 241 241 240 242 241 241 242 244 247 250 253 256 259 262 266 270 272 274 276 277 279 279 279 281
247 249 254 258 259 260 261 258 259 257 255 253 248 245 242 240 239 238 238 241 240 242 243 243 245 245 247 250 252 256 258 260 263 267 270 271 274 275 276 278 279 280 281
246 249 253 258 260 260 262 261 262 257 256 254 249 247 243 240 239 236 237 241 241 243 244 245 245 246 249 252 255 258 260 262 265 268 271 273 274 276 278 279 279 279 281
246 249 253 257 260 262 262 261 261 258 256 254 251 250 245 242 239 237 239 241 242 245 247 247 248 249 250 254 258 261 262 264 267 269 271 272 274 277 279 279 279 279 280
246 248 251 255 260 262 263 263 260 260 258 255 252 249 247 243 241 240 240 243 243 245 247 247 248 250 253 257 259 261 264 267 268 269 270 271 274 276 277 279 280 280 280
245 247 251 254 259 263 264 262 262 261 263 258 252 249 248 247 245 243 243 243 245 246 248 250 251 253 258 260 261 261 264 267 270 271 270 272 274 276 277 279 279 280 281
244 246 250 254 257 261 263 263 260 260 263 260 255 253 251 249 244 246 246 246 245 246 248 252 254 257 260 259 260 262 265 267 270 271 273 274 274 274 276 277 278 279 280
242 244 248 252 256 259 263 266 263 260 260 259 257 255 255 250 249 248 246 245 244 246 250 252 254 257 259 259 261 264 265 267 270 272 272 273 274 274 276 277 278 280 281
243 245 248 252 256 260 262 264 264 262 263 259 256 254 253 252 250 248 246 245 245 247 250 252 255 257 257 258 261 263 265 268 270 272 274 274 275 276 277 278 279 280 281
245 247 250 252 255 257 259 261 264 261 263 260 255 254 253 252 250 247 245 245 246 248 251 254 257 259 259 261 263 265 266 268 270 273 276 277 277 278 279 281 281 281 282